TITAN 3C TRANSTAGE DEB, 1915

Orbit data source: Space-Track

TITAN 3C TRANSTAGE DEB, 1915 is space debris in LEO originally from a launch on Fri, 15 Oct 1965 UTC launched from the Air Force Eastern Test Range (AFETR). Debris objects in space refer to the collection of defunct objects orbiting the Earth. Examples of debris include non-operational satellites, rocket bodies, and fragments generated from explosions, collisions, or faulty payload assembly.

Loading next visibility...
Identifier
1915, 1965-082FZ
Orbit
LEO
Country
Flag of USUS
Related business
Manufacturer
Unknown
Mission
Spacecraft
Bus & Motor
Unknown
Mass
Unknown
Launch date (UTC)
1965-10-15 (60 years ago)
Launch vehicle
Unknown
Launch site
Air Force Eastern Test Range (AFETR)
Object type
Payload
Rocket body
Debris
Shape & HBR
Unknown
Radar Cross Section
Small (<0.1 m²)

Expand to show TLE details & history
Last TLE update: 2 days ago

TLE from 2 days ago
0 TITAN 3C TRANSTAGE DEB
1 01915U 65082FZ  25258.88647632  .00000405  00000-0  77049-4 0  9993
2 01915  31.8765 108.6233 0029208 318.5900  41.2526 14.58141585175351
Epoch: 2025-09-15T21:16Z
TLE epoch observation values (Epoch: 2025-09-15T21:16:31.554Z)
Latitude
-0.00003°
Longitude
154.40708°
Altitude
682.298 km
Speed
7.526 km/s
True Right ascension
07h 14m 29s
True Declination
0° 00' 00"
Sunlit
Object was in daylight at epoch
Visualization orbit readout
Latitude
Unknown
Longitude
Unknown
Altitude
Unknown
Speed
Unknown
Apparent Right ascension
Unknown
Apparent Declination
Unknown
Sunlit
N/A
Visualization observer readout
Local Sidereal Time
21:57:10
Azimuth
Unknown
Elevation
Unknown
Doppler factor
Unknown
Orbital elements
Apogee altitude
723.489 km
Perigee altitude
682.125 km
Semi-major axis
7,080.944 km
Eccentricity
0.00292
Inclination
31.8765°
RAAN
108.6233°
Arg. of periapsis
318.59°
True anomaly
41.4739°
Mean anomaly
41.2526°
Eccentric anomaly
41.36319°
Mean motion
3.64256 °/min
Orbital period
98.83 mins
BSTAR
0.000077049
Loading maneuver chart data...
Computing Atmospheric mass density...

Documentation

Showing up to 5 results
|